Weather History for Harbor Springs, MI

Change the Weather History Date:

Thursday, August 22, 2013

  Actual Average (KPLN) Record (KPLN)
Temperature  
Mean Temperature 72 °F -  
Max Temperature 80 °F 76 °F 132 °F (1996)
Min Temperature 62 °F 50 °F 30 °F (1950)
Cooling Degree Days 6    
Growing Degree Days 22 (Base 50)    
Moisture  
Dew Point 60 °F    
Average Humidity 68    
Maximum Humidity 93    
Minimum Humidity 35    
Precipitation  
Precipitation 0.00 in - - ()
Sea Level Pressure  
Sea Level Pressure 30.03 in    
Wind  
Wind Speed 7 mph (WNW)    
Max Wind Speed 15 mph    
Max Gust Speed 26 mph    
Visibility 10 miles    
Events Rain    
Averages and records for this station are not official NWS values.
T = Trace of Precipitation, MM = Missing Value Source: NWS Daily Summary

Daily Weather History Graph

Daily Weather History Graph

Search for Another Location

Airport:

Trip Planner

Search our weather history database for the weather conditions in past years. The results will help you decide how hot, cold, wet, or windy it might be!

Date:

Astronomy

Aug. 22, 2013 Rise Set
Actual Time 6:49 AM EDT 8:34 PM EDT
Civil Twilight 6:17 AM EDT 9:06 PM EDT
Nautical Twilight 5:39 AM EDT 9:44 PM EDT
Astronomical Twilight 4:57 AM EDT 10:25 PM EDT
Moon 9:08 PM EDT (8/22) 8:45 AM EDT (8/22)
Length of Visible Light 14h 48m
Length of Day
13h 45m
Waning Gibbous, 97% of the Moon is Illuminated
Aug 22
Waning Gibbous
Aug 28
Last Quarter
Sep 5
New
Sep 12
First Quarter
Sep 19
Full

Hourly Weather History & Observations

Time (EDT) Temp. Heat Index Dew Point Humidity Pressure Visibility Wind Dir Wind Speed Gust Speed Precip Events Conditions
12:15 AM 70.9 °F - 64.8 °F 81% 29.93 in 10.0 mi WNW 9.2 mph 16.1 mph N/A Rain Rain
12:35 AM 71.6 °F - 65.1 °F 80% 29.93 in 10.0 mi West 11.5 mph 26.5 mph N/A Rain Light Rain
12:54 AM 72.9 °F - 65.3 °F 77% 29.93 in 10.0 mi WNW 15.0 mph 23.0 mph N/A   Scattered Clouds
1:15 AM 75.2 °F - 66.7 °F 75% 29.93 in 10.0 mi NW 15.0 mph 24.2 mph N/A   Clear
1:35 AM 75.2 °F - 64.2 °F 69% 29.93 in 10.0 mi NW 11.5 mph 23.0 mph N/A   Clear
1:54 AM 75.2 °F - 63.3 °F 66% 29.92 in 10.0 mi NW 12.7 mph 18.4 mph N/A   Clear
2:15 AM 75.2 °F - 63.1 °F 66% 29.91 in 10.0 mi NNW 13.8 mph 18.4 mph N/A   Clear
2:35 AM 75.2 °F - 63.5 °F 67% 29.93 in 10.0 mi WNW 8.1 mph - N/A   Clear
2:54 AM 75.2 °F - 64.4 °F 69% 29.93 in 10.0 mi NW 6.9 mph - N/A   Clear
3:15 AM 72.5 °F - 63.0 °F 72% 29.93 in 10.0 mi SW 3.5 mph - N/A   Clear
3:34 AM 70.0 °F - 62.6 °F 77% 29.95 in 10.0 mi Calm Calm - N/A   Clear
3:54 AM 70.0 °F - 64.4 °F 82% 29.95 in 10.0 mi Calm Calm - N/A   Clear
4:15 AM 68.0 °F - 63.5 °F 85% 29.97 in 10.0 mi West 3.5 mph - N/A   Clear
4:34 AM 70.0 °F - 65.5 °F 86% 29.97 in 10.0 mi West 3.5 mph - N/A   Clear
4:54 AM 70.0 °F - 66.4 °F 88% 29.99 in 10.0 mi Calm Calm - N/A   Scattered Clouds
5:15 AM 70.0 °F - 67.1 °F 91% 29.99 in 10.0 mi Calm Calm - N/A   Scattered Clouds
5:34 AM 70.0 °F - 67.6 °F 92% 30.00 in 10.0 mi West 3.5 mph - N/A   Clear
5:54 AM 70.0 °F - 68.0 °F 93% 30.00 in 10.0 mi Calm Calm - N/A   Scattered Clouds
6:15 AM 70.0 °F - 67.5 °F 92% 29.99 in 10.0 mi Calm Calm - N/A   Mostly Cloudy
6:34 AM 68.0 °F - 65.5 °F 92% 30.00 in 10.0 mi SW 3.5 mph - N/A   Mostly Cloudy
6:55 AM 68.0 °F - 65.7 °F 92% 30.00 in 10.0 mi SSW 4.6 mph - N/A   Mostly Cloudy
7:15 AM 68.0 °F - 65.8 °F 93% 30.01 in 10.0 mi SW 4.6 mph - N/A   Mostly Cloudy
7:34 AM 70.0 °F - 67.6 °F 92% 30.01 in 10.0 mi SSW 5.8 mph - N/A   Mostly Cloudy
7:55 AM 70.0 °F - 67.5 °F 92% 30.00 in 10.0 mi SSW 5.8 mph - N/A   Scattered Clouds
8:15 AM 70.0 °F - 67.5 °F 92% 30.01 in 10.0 mi SW 3.5 mph - N/A   Scattered Clouds
8:34 AM 70.0 °F - 67.1 °F 91% 30.01 in 10.0 mi SW 4.6 mph - N/A   Mostly Cloudy
8:55 AM 70.0 °F - 67.5 °F 92% 30.02 in 10.0 mi WSW 3.5 mph - N/A   Overcast
9:15 AM 70.0 °F - 67.5 °F 92% 30.02 in 10.0 mi WSW 3.5 mph - N/A   Overcast
9:34 AM 70.0 °F - 67.1 °F 91% 30.01 in 10.0 mi Calm Calm - N/A   Overcast
9:55 AM 70.0 °F - 66.6 °F 89% 30.03 in 10.0 mi WSW 5.8 mph - N/A   Overcast
10:15 AM 70.0 °F - 66.7 °F 89% 30.04 in 7.0 mi WSW 5.8 mph - N/A   Overcast
10:34 AM 70.0 °F - 67.1 °F 91% 30.05 in 7.0 mi WSW 4.6 mph - N/A   Overcast
10:55 AM 74.3 °F - 68.7 °F 83% 30.05 in 10.0 mi West 4.6 mph - N/A   Mostly Cloudy
11:14 AM 73.9 °F - 67.5 °F 80% 30.04 in 10.0 mi SSW 5.8 mph - N/A   Scattered Clouds
11:34 AM 72.5 °F - 67.1 °F 83% 30.06 in 10.0 mi SW 6.9 mph - N/A   Scattered Clouds
11:55 AM 72.7 °F - 67.1 °F 83% 30.07 in 10.0 mi SW 6.9 mph - N/A   Scattered Clouds
12:15 PM 71.8 °F - 67.1 °F 85% 30.07 in 10.0 mi SW 6.9 mph - N/A   Clear
12:34 PM 72.9 °F - 67.5 °F 83% 30.07 in 10.0 mi SW 6.9 mph - N/A   Scattered Clouds
12:55 PM 74.8 °F - 69.1 °F 82% 30.07 in 10.0 mi SW 8.1 mph - N/A   Scattered Clouds
1:14 PM 75.0 °F - 69.1 °F 82% 30.07 in 10.0 mi WSW 9.2 mph - N/A   Clear
1:34 PM 75.2 °F - 67.5 °F 77% 30.06 in 10.0 mi WSW 9.2 mph - N/A   Clear
1:55 PM 75.2 °F - 65.8 °F 73% 30.06 in 10.0 mi WSW 6.9 mph - N/A   Clear
2:14 PM 80.1 °F 79.9 °F 53.2 °F 39% 30.06 in 10.0 mi WNW 9.2 mph - N/A   Clear
2:34 PM 80.1 °F - 52.0 °F 38% 30.06 in 10.0 mi West 10.4 mph 17.3 mph N/A   Clear
2:55 PM 80.1 °F - 51.1 °F 36% 30.06 in 10.0 mi WNW 8.1 mph 17.3 mph N/A   Clear
3:14 PM 80.2 °F - 50.0 °F 35% 30.06 in 10.0 mi North 6.9 mph - N/A   Clear
3:35 PM 80.1 °F - 51.3 °F 37% 30.06 in 10.0 mi WNW 8.1 mph 16.1 mph N/A   Clear
3:55 PM 80.1 °F - 52.0 °F 38% 30.06 in 10.0 mi NNW 5.8 mph 16.1 mph N/A   Clear
4:14 PM 80.1 °F - 52.2 °F 38% 30.06 in 10.0 mi North 5.8 mph 16.1 mph N/A   Clear
4:35 PM 80.1 °F - 51.4 °F 37% 30.06 in 10.0 mi NNW 10.4 mph 16.1 mph N/A   Clear
4:54 PM 80.1 °F - 50.5 °F 36% 30.06 in 10.0 mi NNW 6.9 mph - N/A   Clear
5:15 PM 79.9 °F - 50.9 °F 36% 30.06 in 10.0 mi NW 9.2 mph - N/A   Clear
5:35 PM 80.1 °F - 50.9 °F 36% 30.05 in 10.0 mi NW 9.2 mph - N/A   Clear
5:54 PM 78.3 °F - 49.3 °F 36% 30.05 in 10.0 mi NNW 8.1 mph - N/A   Clear
6:15 PM 77.9 °F - 48.7 °F 36% 30.06 in 10.0 mi North 6.9 mph - N/A   Clear
6:35 PM 77.9 °F - 49.3 °F 37% 30.06 in 10.0 mi NW 8.1 mph - N/A   Clear
6:54 PM 77.5 °F - 49.3 °F 37% 30.06 in 10.0 mi NW 5.8 mph - N/A   Clear
7:15 PM 77.5 °F - 50.5 °F 39% 30.06 in 10.0 mi NW 4.6 mph - N/A   Clear
7:34 PM 75.2 °F - 49.5 °F 40% 30.06 in 10.0 mi NW 4.6 mph - N/A   Clear
7:54 PM 75.2 °F - 50.7 °F 42% 30.06 in 10.0 mi NW 4.6 mph - N/A   Clear
8:15 PM 72.7 °F - 50.7 °F 46% 30.07 in 10.0 mi NNW 5.8 mph - N/A   Clear
8:34 PM 70.0 °F - 50.9 °F 51% 30.08 in 10.0 mi NNW 3.5 mph - N/A   Clear
8:54 PM 70.0 °F - 53.4 °F 56% 30.08 in 10.0 mi North 3.5 mph - N/A   Clear
9:15 PM 67.8 °F - 53.6 °F 60% 30.10 in 10.0 mi North 4.6 mph - N/A   Clear
9:34 PM 67.5 °F - 53.8 °F 61% 30.10 in 10.0 mi North 3.5 mph - N/A   Clear
9:55 PM 64.9 °F - 52.9 °F 65% 30.11 in 10.0 mi NNW 6.9 mph - N/A   Clear
10:15 PM 64.9 °F - 52.3 °F 64% 30.11 in 10.0 mi North 5.8 mph - N/A   Clear
10:34 PM 64.8 °F - 52.3 °F 64% 30.11 in 10.0 mi North 6.9 mph - N/A   Clear
10:55 PM 64.9 °F - 51.3 °F 61% 30.11 in 10.0 mi North 6.9 mph - N/A   Clear
11:15 PM 64.9 °F - 51.8 °F 62% 30.11 in 10.0 mi North 6.9 mph - N/A   Clear
11:34 PM 63.0 °F - 50.9 °F 65% 30.12 in 10.0 mi North 4.6 mph - N/A   Clear
11:55 PM 62.6 °F - 51.8 °F 68% 30.12 in 10.0 mi North 5.8 mph - N/A   Clear